Huron, SD

2:36 PM CDT on July 26, 2017 (GMT -0500)
Huron Regional

Weather History for KHON - November, 2013

Change the Weather History Date:

Tuesday, November 12, 2013

  Actual Average Record
Temperature  
Mean Temperature 19 °F 35 °F  
Max Temperature 37 °F 45 °F 71 °F (1887)
Min Temperature 1 °F 24 °F -6 °F (1986)
Degree Days  
Heating Degree Days 46 30  
Month to date heating degree days 369 326  
Since 1 July heating degree days 1008 1056  
Cooling Degree Days 0 0  
Month to date cooling degree days 0 0  
Year to date cooling degree days 848 742  
Moisture  
Dew Point 10 °F    
Average Humidity 67    
Maximum Humidity 87    
Minimum Humidity 47    
Precipitation  
Precipitation 0.00 in 0.03 in 1.29 in (1993)
Month to date precipitation 0.15 0.41  
Year to date precipitation 24.17 21.92  
Snow  
Snow 0.00 in 0.20 in 5.00 in (1922)
Month to date snowfall 1.6 2.0  
Since 1 July snowfall 2.5 3.1  
Since 1 September snowfall 2.5 3.1  
Snow Depth 1.00 in    
Sea Level Pressure  
Sea Level Pressure 30.68 in    
Wind  
Wind Speed 8 mph (SSE)    
Max Wind Speed 17 mph    
Max Gust Speed 24 mph    
Visibility 10 miles    
Events      
T = Trace of Precipitation, MM = Missing Value Source: NWS Daily Summary

Daily Weather History Graph

Daily Weather History Graph

Search for Another Location

Airport or City:

Trip Planner

Search our weather history database for the weather conditions in past years. The results will help you decide how hot, cold, wet, or windy it might be!

Date:

Astronomy

Nov. 12, 2013 Rise Set
Actual Time 7:25 AM CST 5:08 PM CST
Civil Twilight 6:54 AM CST 5:39 PM CST
Nautical Twilight 6:19 AM CST 6:14 PM CST
Astronomical Twilight 5:44 AM CST 6:48 PM CST
Moon 2:33 PM CST (11/12) 2:05 AM CST (11/12)
Length of Visible Light 10h 45m
Length of Day
9h 43m
Waxing Gibbous, 76% of the Moon is Illuminated
Nov 12
Waxing Gibbous
Nov 17
Full
Nov 25
Last Quarter
Dec 2
New
Dec 9
First Quarter

Hourly Weather History & Observations

Time (CST) Temp. Windchill Dew Point Humidity Pressure Visibility Wind Dir Wind Speed Gust Speed Precip Events Conditions
12:55 AM 3.9 °F -5.3 °F -0.0 °F 84% 30.89 in 10.0 mi SW 4.6 mph - N/A   Clear
1:55 AM 3.9 °F - -2.0 °F 76% 30.87 in 10.0 mi Calm Calm - N/A   Clear
2:55 AM 1.9 °F - -2.0 °F 83% 30.87 in 10.0 mi Calm Calm - N/A   Clear
3:55 AM 3.9 °F - -2.9 °F 73% 30.87 in 10.0 mi Calm Calm - N/A   Clear
4:55 AM 3.9 °F - -2.0 °F 76% 30.87 in 10.0 mi Calm Calm - N/A   Clear
5:55 AM 1.9 °F -5.6 °F -2.9 °F 80% 30.87 in 10.0 mi SSE 3.5 mph - N/A   Clear
6:55 AM 3.0 °F - -2.0 °F 80% 30.86 in 10.0 mi Calm Calm - N/A   Clear
7:55 AM 5.0 °F -4.1 °F -0.0 °F 80% 30.87 in 10.0 mi SSE 4.6 mph - N/A   Clear
8:55 AM 10.0 °F 0.4 °F 5.0 °F 80% 30.85 in 10.0 mi SSE 5.8 mph - N/A   Clear
9:55 AM 18.0 °F 7.7 °F 10.0 °F 71% 30.82 in 10.0 mi SSE 8.1 mph - N/A   Clear
10:55 AM 23.0 °F 11.1 °F 10.9 °F 60% 30.79 in 10.0 mi SSE 12.7 mph - N/A   Clear
11:55 AM 28.0 °F 17.0 °F 12.9 °F 53% 30.74 in 10.0 mi South 13.8 mph - N/A   Clear
12:55 PM 30.9 °F 20.7 °F 14.0 °F 50% 30.69 in 10.0 mi South 13.8 mph - N/A   Clear
1:55 PM 33.1 °F 23.9 °F 16.0 °F 50% 30.63 in 10.0 mi South 12.7 mph - N/A   Clear
2:55 PM 36.0 °F 28.5 °F 19.9 °F 52% 30.59 in 10.0 mi South 10.4 mph 19.6 mph N/A   Clear
3:55 PM 37.0 °F 29.8 °F 21.0 °F 52% 30.59 in 10.0 mi South 10.4 mph - N/A   Clear
4:55 PM 34.0 °F 28.8 °F 21.0 °F 59% 30.57 in 10.0 mi SSE 5.8 mph - N/A   Clear
5:55 PM 30.9 °F 24.3 °F 19.0 °F 61% 30.54 in 10.0 mi SSE 6.9 mph - N/A   Clear
6:55 PM 30.9 °F 20.7 °F 17.1 °F 57% 30.51 in 10.0 mi SSE 13.8 mph - N/A   Clear
7:55 PM 30.0 °F 19.1 °F 16.0 °F 56% 30.48 in 10.0 mi SSE 15.0 mph 21.9 mph N/A   Clear
8:55 PM 30.0 °F 21.1 °F 17.1 °F 59% 30.45 in 10.0 mi South 10.4 mph 18.4 mph N/A   Clear
9:55 PM 28.0 °F 18.6 °F 18.0 °F 66% 30.41 in 10.0 mi SSE 10.4 mph - N/A   Clear
10:55 PM 28.0 °F 18.6 °F 19.0 °F 69% 30.37 in 10.0 mi SSE 10.4 mph 18.4 mph N/A   Clear
11:55 PM 27.0 °F 16.7 °F 19.9 °F 75% 30.35 in 10.0 mi SSE 11.5 mph - N/A   Clear